Akron, CO

5:55 AM MST on February 25, 2018 (GMT -0700)
Akron-Washington County

Weather History for KAKO - April, 2014

Change the Weather History Date:

Thursday, April 3, 2014

  Actual Average Record
Temperature  
Mean Temperature 36 °F 43 °F  
Max Temperature 46 °F 57 °F 80 °F (1943)
Min Temperature 26 °F 30 °F 15 °F (1945)
Degree Days  
Heating Degree Days 29    
Month to date heating degree days 78  
Cooling Degree Days 0    
Month to date cooling degree days 0  
Moisture  
Dew Point 29 °F    
Average Humidity 69    
Maximum Humidity 100    
Minimum Humidity 37    
Precipitation  
Precipitation 0.24 in 0.04 in 0.98 in (1986)
Month to date precipitation 0.24 0.12  
Year to date precipitation 1.10 1.73  
Sea Level Pressure  
Sea Level Pressure 29.85 in    
Wind  
Wind Speed 10 mph (North)    
Max Wind Speed 35 mph    
Max Gust Speed 41 mph    
Visibility 4 miles    
Events Fog , Snow    
T = Trace of Precipitation, MM = Missing Value Source: NWS Daily Summary

Daily Weather History Graph

Daily Weather History Graph

Search for Another Location

Airport or City:

Trip Planner

Search our weather history database for the weather conditions in past years. The results will help you decide how hot, cold, wet, or windy it might be!

Date:

Astronomy

Apr. 03, 2014 Rise Set
Actual Time 6:33 AM MDT 7:19 PM MDT
Civil Twilight 6:06 AM MDT 7:46 PM MDT
Nautical Twilight 5:33 AM MDT 8:19 PM MDT
Astronomical Twilight 4:59 AM MDT 8:53 PM MDT
Moon 9:04 AM MDT (4/3) 11:41 PM MDT (4/3)
Length of Visible Light 13h 40m
Length of Day
12h 45m
Waxing Crescent, 18% of the Moon is Illuminated
Apr 3
Waxing Crescent
Apr 7
First Quarter
Apr 15
Full
Apr 22
Last Quarter
Apr 29
New

Hourly Weather History & Observations

Time (MDT) Temp. Windchill Dew Point Humidity Pressure Visibility Wind Dir Wind Speed Gust Speed Precip Events Conditions
12:44 AM 32.0 °F 23.6 °F 30.0 °F 92% 29.77 in 1.8 mi NE 10.4 mph - 0.00 in Snow Light Snow
12:51 AM 32.0 °F 25.6 °F 30.2 °F 93% 29.78 in 1.5 mi ENE 6.9 mph - 0.00 in Snow Light Snow
12:53 AM 32.0 °F 25.6 °F 30.0 °F 92% 29.81 in 1.5 mi ENE 6.9 mph - 0.00 in Snow Light Snow
1:00 AM 32.0 °F 24.8 °F 30.0 °F 92% 29.77 in 1.0 mi NE 8.1 mph - 0.00 in Snow Light Snow
1:15 AM 32.0 °F 27.5 °F 30.0 °F 92% 29.78 in 1.2 mi ENE 4.6 mph - 0.01 in Snow Light Snow
1:31 AM 32.0 °F 27.5 °F 30.9 °F 96% 29.77 in 1.0 mi NE 4.6 mph - 0.02 in Snow Light Snow
1:38 AM 32.0 °F 27.5 °F 30.0 °F 92% 29.76 in 0.8 mi NNE 4.6 mph - 0.03 in Snow Light Snow
1:53 AM 32.0 °F 28.7 °F 30.9 °F 96% 29.79 in 0.8 mi NE 3.5 mph - 0.04 in Snow Light Snow
2:00 AM 32.0 °F 26.4 °F 30.9 °F 96% 29.76 in 1.0 mi NNE 5.8 mph - 0.00 in Snow Light Snow
2:09 AM 32.0 °F 27.5 °F 30.9 °F 96% 29.76 in 0.8 mi North 4.6 mph - 0.01 in Snow Light Snow
2:53 AM 30.9 °F - 30.9 °F 100% 29.78 in 0.5 mi Calm Calm - 0.06 in Fog , Snow Snow
3:07 AM 30.9 °F 27.5 °F 30.9 °F 100% 29.77 in 0.8 mi WNW 3.5 mph - 0.01 in Snow Light Snow
3:26 AM 30.9 °F 27.5 °F 30.9 °F 100% 29.76 in 0.5 mi NW 3.5 mph - 0.03 in Fog , Snow Snow
3:34 AM 30.9 °F 26.2 °F 30.9 °F 100% 29.77 in 0.8 mi WNW 4.6 mph - 0.04 in Snow Light Snow
3:53 AM 30.9 °F 26.2 °F 30.9 °F 100% 29.76 in 1.0 mi NW 4.6 mph - 0.05 in Snow Light Snow
4:00 AM 30.9 °F 26.2 °F 30.9 °F 100% 29.75 in 0.8 mi NNW 4.6 mph - 0.00 in Snow Light Snow
4:23 AM 30.9 °F 26.2 °F 30.9 °F 100% 29.75 in 0.8 mi North 4.6 mph - 0.02 in Snow Light Snow
4:39 AM 32.0 °F 27.5 °F 30.9 °F 96% 29.75 in 1.0 mi North 4.6 mph - 0.02 in Snow Light Snow
4:49 AM 32.0 °F 25.6 °F 30.2 °F 93% 29.75 in 1.2 mi North 6.9 mph - 0.02 in Snow Light Snow
4:53 AM 32.0 °F 25.6 °F 30.9 °F 96% 29.75 in 1.0 mi North 6.9 mph - 0.02 in Snow Light Snow
5:07 AM 32.0 °F 25.6 °F 30.9 °F 96% 29.76 in 0.8 mi NNW 6.9 mph - 0.00 in Snow Light Snow
5:53 AM 32.0 °F 24.8 °F 30.9 °F 96% 29.78 in 0.2 mi NW 8.1 mph - 0.01 in Fog , Snow Light Snow
6:53 AM 32.0 °F 25.6 °F 30.9 °F 96% 29.82 in 0.2 mi NW 6.9 mph - 0.01 in Fog , Snow Snow
7:02 AM 32.0 °F 25.6 °F 30.9 °F 96% 29.80 in 0.5 mi NW 6.9 mph - 0.00 in Fog , Snow Light Snow
7:15 AM 32.0 °F 23.6 °F 30.9 °F 96% 29.81 in 0.5 mi NW 10.4 mph - 0.01 in Fog , Snow Snow
7:26 AM 32.0 °F 24.2 °F 30.9 °F 96% 29.81 in 0.5 mi NW 9.2 mph - 0.02 in Fog , Snow Snow
7:53 AM 32.0 °F 23.6 °F 30.9 °F 96% 29.85 in 0.5 mi NNW 10.4 mph - 0.03 in Fog , Snow Snow
8:48 AM 32.0 °F 21.2 °F 30.2 °F 93% 29.83 in 1.2 mi North 16.1 mph - 0.02 in Snow Light Snow
8:53 AM 32.0 °F 20.5 °F 30.9 °F 96% 29.87 in 1.2 mi North 18.4 mph - 0.02 in Snow Light Snow
9:17 AM 32.0 °F 20.1 °F 30.9 °F 96% 29.84 in 0.8 mi North 19.6 mph - 0.00 in Snow Light Snow
9:53 AM 32.0 °F 19.5 °F 30.0 °F 92% 29.90 in 1.0 mi North 21.9 mph - 0.00 in Snow Light Snow
9:57 AM 32.0 °F 19.8 °F 30.0 °F 92% 29.85 in 1.2 mi North 20.7 mph - 0.00 in Snow Light Snow
9:59 AM 32.0 °F 19.5 °F 30.0 °F 92% 29.85 in 1.5 mi North 21.9 mph - 0.00 in Snow Light Snow
10:02 AM 32.0 °F 20.1 °F 30.0 °F 92% 29.85 in 2.0 mi North 19.6 mph - 0.00 in Snow Light Snow
10:12 AM 32.0 °F 20.1 °F 30.0 °F 92% 29.85 in 4.0 mi North 19.6 mph - 0.00 in   Overcast
10:27 AM 33.1 °F 20.9 °F 28.9 °F 85% 29.86 in 8.0 mi North 21.9 mph 29.9 mph 0.00 in   Overcast
10:53 AM 33.1 °F 21.9 °F 28.9 °F 85% 29.91 in 10.0 mi North 18.4 mph - 0.00 in   Mostly Cloudy
11:53 AM 35.1 °F 23.5 °F 28.9 °F 78% 29.92 in 10.0 mi North 21.9 mph - N/A   Mostly Cloudy
12:00 PM 35.1 °F 23.5 °F 28.0 °F 76% 29.87 in 10.0 mi North 21.9 mph - N/A   Overcast
12:53 PM 36.0 °F 24.2 °F 28.0 °F 73% 29.93 in 10.0 mi North 24.2 mph - N/A   Mostly Cloudy
1:23 PM 37.0 °F 25.1 °F 27.0 °F 67% 29.88 in 10.0 mi North 26.5 mph 34.5 mph N/A   Mostly Cloudy
1:53 PM 37.9 °F 26.1 °F 28.0 °F 68% 29.92 in 10.0 mi NNW 27.6 mph 34.5 mph N/A   Mostly Cloudy
2:53 PM 39.0 °F 28.8 °F 27.0 °F 62% 29.92 in 10.0 mi North 21.9 mph 32.2 mph N/A   Scattered Clouds
3:53 PM 45.0 °F 35.6 °F 27.0 °F 49% 29.91 in 10.0 mi North 27.6 mph 34.5 mph N/A   Mostly Cloudy
4:53 PM 45.0 °F 35.2 °F 21.9 °F 40% 29.92 in 10.0 mi NNW 29.9 mph 40.3 mph N/A   Scattered Clouds
5:53 PM 45.0 °F 35.8 °F 19.0 °F 36% 29.95 in 10.0 mi North 26.5 mph 40.3 mph N/A   Scattered Clouds
6:53 PM 39.9 °F 30.8 °F 19.9 °F 45% 30.01 in 10.0 mi North 18.4 mph - N/A   Clear
7:53 PM 35.1 °F 26.4 °F 17.1 °F 48% 30.05 in 10.0 mi North 12.7 mph - N/A   Clear
9:53 PM 30.9 °F 24.3 °F 19.9 °F 64% 30.12 in 10.0 mi North 6.9 mph - N/A   Mostly Cloudy
10:53 PM 30.9 °F 26.2 °F 21.0 °F 67% 30.15 in 10.0 mi NNW 4.6 mph - N/A   Overcast
11:53 PM 30.9 °F 24.3 °F 18.0 °F 59% 30.15 in 10.0 mi NW 6.9 mph - N/A   Mostly Cloudy